| time (UTC) | temp F | wind direction | speed knots | gust knots | rain 1hr in | rain 24hr in | rain mn in | humidity % | barometer mb |
| 20260506234537 | 63 | 320 | 4.3 | 8.7 | 0.00 | 0.00 | 0.00 | 81 | 1007.9 |
| 20260506233031 | 64 | 330 | 3.5 | 9.6 | 0.00 | 0.00 | 0.00 | 81 | 1008.0 |
| 20260506231534 | 64 | 332 | 4.3 | 9.6 | 0.00 | 0.00 | 0.00 | 81 | 1007.6 |
| 20260506230027 | 65 | 327 | 5.2 | 9.6 | 0.00 | 0.00 | 0.00 | 81 | 1007.6 |
| 20260506224527 | 65 | 321 | 4.3 | 9.6 | 0.00 | 0.00 | 0.00 | 81 | 1007.7 |
| 20260506223037 | 65 | 333 | 5.2 | 10.4 | 0.00 | 0.00 | 0.00 | 81 | 1007.5 |
| 20260506221521 | 66 | 322 | 3.5 | 11.3 | 0.00 | 0.00 | 0.00 | 81 | 1007.2 |
| 20260506220021 | 67 | 298 | 4.3 | 10.4 | 0.00 | 0.00 | 0.00 | 81 | 1007.3 |
| 20260506214516 | 68 | 323 | 4.3 | 9.6 | 0.00 | 0.00 | 0.00 | 81 | 1007.2 |
| 20260506213013 | 69 | 335 | 4.3 | 13.0 | 0.00 | 0.00 | 0.00 | 81 | 1007.2 |
| 20260506211515 | 70 | 333 | 5.2 | 11.3 | 0.00 | 0.00 | 0.00 | 81 | 1006.9 |
| 20260506210014 | 71 | 317 | 6.1 | 11.3 | 0.00 | 0.00 | 0.00 | 82 | 1007.0 |
| 20260506204511 | 71 | 330 | 4.3 | 10.4 | 0.00 | 0.00 | 0.00 | 82 | 1006.8 |
| 20260506203021 | 72 | 327 | 5.2 | 9.6 | 0.00 | 0.00 | 0.00 | 83 | 1007.2 |
| 20260506201524 | 72 | 310 | 4.3 | 11.3 | 0.00 | 0.00 | 0.00 | 83 | 1007.3 |
| 20260506200011 | 73 | 291 | 0.9 | 9.6 | 0.00 | 0.00 | 0.00 | 83 | 1006.9 |
| 20260506194508 | 75 | 321 | 4.3 | 11.3 | 0.00 | 0.00 | 0.00 | 83 | 1006.7 |
| 20260506193007 | 78 | 333 | 3.5 | 8.7 | 0.00 | 0.00 | 0.00 | 84 | 1006.4 |
| 20260506191507 | 78 | 349 | 2.6 | 5.2 | 0.00 | 0.00 | 0.00 | 85 | 1006.4 |
| 20260506190006 | 78 | 348 | 1.7 | 4.3 | 0.00 | 0.00 | 0.00 | 86 | 1006.8 |
| 20260506184502 | 77 | 355 | 0.9 | 4.3 | 0.00 | 0.00 | 0.00 | 87 | 1006.8 |
| 20260506183105 | 75 | 355 | 0.9 | 7.8 | 0.00 | 0.00 | 0.00 | 87 | 1006.7 |
| 20260506181559 | 74 | 355 | 1.7 | 7.0 | 0.00 | 0.00 | 0.00 | 87 | 1006.9 |
| 20260506180059 | 72 | 328 | 0.9 | 4.3 | 0.00 | 0.00 | 0.00 | 87 | 1006.8 |
| 20260506174559 | 72 | 347 | 0.9 | 5.2 | 0.00 | 0.00 | 0.00 | 88 | 1007.1 |
| 20260506173103 | 70 | 335 | 1.7 | 4.3 | 0.00 | 0.00 | 0.00 | 88 | 1007.0 |
| 20260506171557 | 69 | 18 | 0.9 | 7.8 | 0.00 | 0.00 | 0.00 | 88 | 1007.2 |
| 20260506170112 | 68 | 346 | 2.6 | 7.0 | 0.00 | 0.00 | 0.00 | 88 | 1007.2 |
| 20260506164556 | 68 | 343 | 1.7 | 8.7 | 0.00 | 0.00 | 0.00 | 88 | 1007.6 |
| 20260506163102 | 68 | 319 | 5.2 | 10.4 | 0.00 | 0.00 | 0.00 | 87 | 1007.9 |
| 20260506161548 | 74 | 340 | 7.8 | 16.5 | 0.00 | 0.00 | 0.00 | 87 | 1007.8 |
| 20260506160047 | 76 | 307 | 0.0 | 2.6 | 0.00 | 0.00 | 0.00 | 89 | 1007.6 |
| 20260506154544 | 75 | 307 | 0.9 | 3.5 | 0.00 | 0.00 | 0.00 | 89 | 1007.5 |
| 20260506153041 | 75 | 307 | 0.0 | 1.7 | 0.00 | 0.00 | 0.00 | 89 | 1007.3 |
| 20260506151543 | 75 | 83 | 0.0 | 1.7 | 0.00 | 0.00 | 0.00 | 89 | 1006.6 |
| 20260506150037 | 75 | 82 | 0.0 | 1.7 | 0.00 | 0.00 | 0.00 | 89 | 1006.2 |
| 20260506144545 | 75 | 184 | 0.0 | 1.7 | 0.00 | 0.00 | 0.00 | 89 | 1006.2 |
| 20260506143036 | 75 | 153 | 0.0 | 5.2 | 0.00 | 0.00 | 0.00 | 89 | 1005.9 |
| 20260506141535 | 75 | 171 | 0.0 | 1.7 | 0.00 | 0.00 | 0.00 | 89 | 1006.0 |
| 20260506140033 | 74 | 171 | 0.0 | 1.7 | 0.00 | 0.00 | 0.00 | 89 | 1006.2 |
| 20260506134531 | 74 | 170 | 0.0 | 2.6 | 0.00 | 0.00 | 0.00 | 89 | 1005.1 |
| 20260506133029 | 74 | 166 | 2.6 | 4.3 | 0.00 | 0.00 | 0.00 | 89 | 1005.2 |
| 20260506131534 | 74 | 202 | 0.0 | 3.5 | 0.00 | 0.00 | 0.00 | 89 | 1005.2 |
| 20260506130029 | 74 | 111 | 0.9 | 4.3 | 0.00 | 0.00 | 0.00 | 89 | 1005.0 |
| 20260506124530 | 74 | 80 | 0.9 | 2.6 | 0.00 | 0.00 | 0.00 | 89 | 1004.9 |
| 20260506123030 | 74 | 169 | 0.0 | 2.6 | 0.00 | 0.00 | 0.00 | 89 | 1004.8 |
| 20260506121527 | 74 | 169 | 0.0 | 0.9 | 0.00 | 0.00 | 0.00 | 89 | 1005.0 |
| 20260506120038 | 74 | 169 | 0.0 | 1.7 | 0.00 | 0.00 | 0.00 | 89 | 1004.9 |
| 20260506114523 | 74 | 169 | 0.0 | 1.7 | 0.00 | 0.00 | 0.00 | 89 | 1004.7 |
| 20260506113029 | 74 | 169 | 0.0 | 4.3 | 0.00 | 0.00 | 0.00 | 89 | 1004.8 |
| 20260506111520 | 74 | 168 | 0.0 | 4.3 | 0.00 | 0.00 | 0.00 | 89 | 1004.7 |
| 20260506110020 | 74 | 168 | 0.9 | 4.3 | 0.00 | 0.00 | 0.00 | 89 | 1004.6 |
| 20260506104520 | 74 | 141 | 0.9 | 4.3 | 0.00 | 0.00 | 0.00 | 89 | 1004.4 |
| 20260506103018 | 74 | 169 | 1.7 | 4.3 | 0.00 | 0.00 | 0.00 | 89 | 1004.3 |
| 20260506101519 | 74 | 149 | 2.6 | 6.1 | 0.00 | 0.00 | 0.00 | 89 | 1004.2 |
| 20260506100018 | 74 | 200 | 1.7 | 4.3 | 0.00 | 0.00 | 0.00 | 88 | 1004.2 |
| 20260506094520 | 74 | 186 | 2.6 | 9.6 | 0.00 | 0.00 | 0.00 | 88 | 1004.1 |
| 20260506093018 | 74 | 167 | 2.6 | 7.0 | 0.00 | 0.00 | 0.00 | 88 | 1003.9 |
| 20260506091518 | 74 | 172 | 1.7 | 7.8 | 0.00 | 0.00 | 0.00 | 88 | 1003.8 |
| 20260506090019 | 74 | 183 | 2.6 | 4.3 | 0.00 | 0.00 | 0.00 | 88 | 1003.8 |
| 20260506084515 | 74 | 167 | 2.6 | 7.0 | 0.00 | 0.00 | 0.00 | 88 | 1003.7 |
| 20260506083015 | 74 | 197 | 3.5 | 10.4 | 0.00 | 0.00 | 0.00 | 88 | 1003.7 |
| 20260506081513 | 74 | 176 | 2.6 | 12.2 | 0.00 | 0.00 | 0.00 | 88 | 1003.7 |
| 20260506073007 | 74 | 175 | 2.6 | 8.7 | 0.00 | 0.00 | 0.00 | 88 | 1004.1 |
| 20260506071505 | 75 | 166 | 4.3 | 8.7 | 0.00 | 0.00 | 0.00 | 87 | 1004.4 |
| 20260506061603 | 75 | 182 | 3.5 | 7.8 | 0.00 | 0.00 | 0.00 | 86 | 1004.4 |
| 20260506050106 | 75 | 183 | 4.3 | 7.8 | 0.00 | 0.00 | 0.00 | 85 | 1004.6 |
| 20260506044552 | 76 | 156 | 4.3 | 9.6 | 0.00 | 0.00 | 0.00 | 85 | 1004.6 |
| 20260506043054 | 76 | 217 | 3.5 | 8.7 | 0.00 | 0.00 | 0.00 | 85 | 1004.5 |
| 20260506041550 | 76 | 192 | 1.7 | 7.0 | 0.00 | 0.00 | 0.00 | 84 | 1004.3 |
| 20260506040051 | 76 | 156 | 2.6 | 7.0 | 0.00 | 0.00 | 0.00 | 84 | 1004.2 |
| 20260506034550 | 76 | 168 | 2.6 | 7.0 | 0.00 | 0.00 | 0.00 | 84 | 1004.0 |
| 20260506033049 | 76 | 176 | 2.6 | 7.0 | 0.00 | 0.00 | 0.00 | 83 | 1003.9 |
| 20260506031550 | 76 | 141 | 2.6 | 6.1 | 0.00 | 0.00 | 0.00 | 83 | 1003.6 |
| 20260506030052 | 77 | 157 | 2.6 | 6.1 | 0.00 | 0.00 | 0.00 | 82 | 1003.4 |
| 20260506024554 | 77 | 132 | 2.6 | 6.1 | 0.00 | 0.00 | 0.00 | 81 | 1003.2 |
| 20260506023045 | 77 | 153 | 2.6 | 5.2 | 0.00 | 0.00 | 0.00 | 81 | 1003.0 |
| 20260506021558 | 77 | 112 | 2.6 | 6.1 | 0.00 | 0.00 | 0.00 | 80 | 1002.7 |
| 20260506020044 | 78 | 187 | 1.7 | 4.3 | 0.00 | 0.00 | 0.00 | 79 | 1002.4 |
| 20260506014544 | 78 | 190 | 1.7 | 5.2 | 0.00 | 0.00 | 0.00 | 79 | 1002.2 |
| 20260506013053 | 79 | 178 | 1.7 | 3.5 | 0.00 | 0.00 | 0.00 | 78 | 1002.1 |
| 20260506011542 | 79 | 176 | 0.0 | 2.6 | 0.00 | 0.00 | 0.00 | 77 | 1002.3 |
| 20260506010040 | 80 | 176 | 0.9 | 2.6 | 0.00 | 0.00 | 0.00 | 77 | 1002.2 |
| 20260506004539 | 80 | 176 | 0.0 | 5.2 | 0.00 | 0.00 | 0.00 | 77 | 1002.2 |
| 20260506003038 | 81 | 171 | 2.6 | 3.5 | 0.00 | 0.00 | 0.00 | 77 | 1002.0 |
| 20260506001541 | 81 | 155 | 2.6 | 6.1 | 0.00 | 0.00 | 0.00 | 76 | 1002.1 |
| 20260506000040 | 81 | 155 | 1.7 | 7.0 | 0.00 | 0.00 | 0.00 | 76 | 1001.9 |